SCD 1 1 22490U 93009B 26118.40054102 .00000481 00000+0 80740-4 0 9997 2 22490 24.9681 154.9725 0041814 331.4710 51.2139 14.46097989753901 TECHSAT 1B (GO-32) 1 25397U 98043D 26118.47266330 .00000081 00000+0 55056-4 0 9992 2 25397 99.0062 109.9814 0001700 39.4496 320.6806 14.24418339444252 SCD 2 1 25504U 98060A 26118.40764089 .00000437 00000+0 71142-4 0 9997 2 25504 24.9967 19.1433 0016589 317.5817 204.2287 14.45506617453115 DLR-TUBSAT 1 25757U 99029B 26118.41661913 .00000112 00000+0 39306-4 0 9992 2 25757 98.6692 112.2864 0014946 138.0754 222.1588 14.52413401426021 TERRA 1 25994U 99068A 26118.51285649 .00000428 00000+0 96122-4 0 9996 2 25994 97.9499 170.0188 0003074 51.2856 56.1220 14.61062544402357 MAROC-TUBSAT 1 27004U 01056D 26118.48717985 -.00000013 00000+0 38132-4 0 9997 2 27004 99.8061 294.4131 0019041 270.2673 103.7872 13.70260368219381 AQUA 1 27424U 02022A 26118.51082740 .00000931 00000+0 19514-3 0 9995 2 27424 98.4247 86.8146 0002063 92.9466 344.7569 14.62078797276010 SHIYAN-1 (SY-1) 1 28220U 04012A 26118.18715349 .00014238 00000+0 45639-3 0 9994 2 28220 97.8707 193.0586 0005960 182.9531 177.1676 15.32460511203430 AURA 1 28376U 04026A 26118.47994203 .00000914 00000+0 19516-3 0 9992 2 28376 98.3384 74.5357 0001696 83.7777 276.3617 14.61250281158955 IRS-P5 (CARTOSAT-1) 1 28649U 05017A 26118.34860738 .00001628 00000+0 17032-3 0 9991 2 28649 97.5347 143.6699 0001140 132.5399 227.5917 14.90918309136391 SINAH 1 1 28893U 05043D 26118.50765818 .00000422 00000+0 89588-4 0 9999 2 28893 98.2783 252.5581 0015667 73.8843 286.4083 14.64122762 93250 RESURS-DK 1 1 29228U 06021A 26118.38815535 .00002856 00000+0 16745-3 0 9994 2 29228 69.9312 108.4401 0003531 336.6454 23.4551 15.13000837 95042 ARIRANG-2 (KOMPSAT-2) 1 29268U 06031A 26118.49416701 .00000120 00000+0 31002-4 0 9999 2 29268 97.8313 305.3449 0013255 227.8351 216.8951 14.64626754 54200 LAPAN-TUBSAT 1 29709U 07001A 26118.49071545 .00001296 00000+0 15510-3 0 9990 2 29709 98.1347 116.5977 0012132 354.8206 5.2881 14.85900894 43777 HAIYANG-1B 1 31113U 07010A 26118.43139322 .00000113 00000+0 58794-4 0 9993 2 31113 98.3478 102.2132 0013411 354.4338 5.6694 14.31014309993514 COSMO-SKYMED 1 1 31598U 07023A 26118.47098428 .00003477 00000+0 30847-3 0 9993 2 31598 97.8866 309.9135 0001605 99.8103 260.3299 14.96855917 22352 TERRASAR-X 1 31698U 07026A 26118.32943873 .00001013 00000+0 51412-4 0 9990 2 31698 97.4453 126.7472 0001859 94.5685 265.5762 15.19151326 45657 WORLDVIEW-1 (WV-1) 1 32060U 07041A 26118.40309350 .00007021 00000+0 28979-3 0 9992 2 32060 97.3886 238.8438 0002025 190.9829 169.1365 15.24344114 35296 YAOGAN-3 1 32289U 07055A 26118.52213627 .00002577 00000+0 26908-3 0 9995 2 32289 97.8205 148.8888 0001457 95.4795 264.6589 14.90591504998462 COSMO-SKYMED 2 1 32376U 07059A 26118.54080274 .00000485 00000+0 67519-4 0 9998 2 32376 97.8885 302.8584 0001410 92.1757 267.9617 14.82161978994642 RADARSAT-2 1 32382U 07061A 26118.49843797 .00000307 00000+0 13612-3 0 9996 2 32382 98.5799 126.1386 0001254 82.8650 277.2675 14.29983802958852 CARTOSAT-2A 1 32783U 08021A 26118.46246536 .00000686 00000+0 99226-4 0 9999 2 32783 97.7684 168.8596 0010302 274.7960 85.2075 14.79173976971457 HUANJING 1A (HJ-1A) 1 33320U 08041A 26118.53767994 .00001961 00000+0 24185-3 0 9991 2 33320 97.6668 106.3064 0017754 305.3193 54.6361 14.83875286951049 HUANJING 1B (HJ-1B) 1 33321U 08041B 26118.55230091 .00001593 00000+0 19904-3 0 9991 2 33321 97.6510 109.6399 0036292 349.1074 10.9350 14.83228980951052 GEOEYE 1 1 33331U 08042A 26118.48753890 .00000510 00000+0 10485-3 0 9995 2 33331 98.1247 193.0462 0003631 200.0539 160.0522 14.64677841942877 THEOS 1 33396U 08049A 26118.50875424 .00000347 00000+0 18270-3 0 9992 2 33396 98.5612 177.3965 0001284 92.1469 267.9855 14.20126379910918 COSMO-SKYMED 3 1 33412U 08054A 26118.53652730 .00004400 00000+0 30019-3 0 9992 2 33412 97.8360 336.2790 0017340 76.0934 284.2220 15.06636381949463 YAOGAN-4 1 33446U 08061A 26118.37773183 .00001061 00000+0 13669-3 0 9997 2 33446 97.9291 52.2652 0013080 229.5052 130.5023 14.83104979938288 GOSAT (IBUKI) 1 33492U 09002A 26118.56996593 .00000485 00000+0 93982-4 0 9993 2 33492 98.0829 230.2878 0001328 109.5186 250.6162 14.67541858924188 DEIMOS-1 1 35681U 09041A 26118.46827104 .00000779 00000+0 12244-3 0 9995 2 35681 97.7342 277.8677 0001870 44.7768 315.3593 14.75184328899551 DUBAISAT-1 1 35682U 09041B 26118.36671495 .00001272 00000+0 19633-3 0 9993 2 35682 97.9973 252.1936 0009468 225.5007 134.5429 14.75031352897751 OCEANSAT-2 1 35931U 09051A 26118.51666645 -.00000154 00000+0 -79661-4 0 9997 2 35931 98.2302 110.3351 0015934 19.4763 340.7009 13.99649503872383 WORLDVIEW-2 (WV-2) 1 35946U 09055A 26118.48012528 .00000144 00000+0 61955-4 0 9992 2 35946 98.4690 192.6300 0004585 24.4771 335.6633 14.37929240868500 SMOS 1 36036U 09059A 26118.49969664 .00000257 00000+0 95971-4 0 9990 2 36036 98.4434 306.5607 0001201 92.6648 267.4677 14.39746148866307 YAOGAN-7 1 36110U 09069A 26118.26095309 .00000522 00000+0 79391-4 0 9998 2 36110 98.0134 4.4216 0024118 197.3304 162.7085 14.77959234882253 TANDEM-X 1 36605U 10030A 26118.39530722 .00001148 00000+0 57871-4 0 9998 2 36605 97.4449 126.8103 0001640 89.1051 271.0371 15.19151516879083 CARTOSAT-2B 1 36795U 10035A 26118.46627818 .00000730 00000+0 10670-3 0 9995 2 36795 98.0003 169.3227 0011193 359.2356 0.8836 14.78667154852504 YAOGAN-10 1 36834U 10038A 26118.51581909 .00002417 00000+0 28834-3 0 9993 2 36834 97.9021 142.3136 0001397 86.9873 69.0628 14.85195176849835 COSMO-SKYMED 4 1 37216U 10060A 26118.48596455 .00000848 00000+0 11301-3 0 9998 2 37216 97.8888 302.8055 0001410 78.4445 281.6926 14.82165144837200 RESOURCESAT-2 1 37387U 11015A 26118.46924223 .00000126 00000+0 77403-4 0 9999 2 37387 98.7665 186.2481 0012003 45.9818 314.2346 14.21600107779112 HAIYANG-2A 1 37781U 11043A 26118.63149696 .00000000 00000+0 45383-4 0 9993 2 37781 99.3414 122.3513 0006860 181.6216 178.4913 13.75813406739842 RASAT 1 37791U 11044D 26118.50559970 .00000547 00000+0 10350-3 0 9992 2 37791 98.0548 210.6675 0020481 353.9765 133.8885 14.68117910785894 SRMSAT 1 37841U 11058D 26118.04564399 .00000424 00000+0 86522-4 0 9992 2 37841 19.9736 2.9655 0011702 12.7398 124.9172 14.11563609750721 PLEIADES 1A 1 38012U 11076F 26118.53864184 .00000558 00000+0 12986-3 0 9992 2 38012 98.1987 194.3049 0001025 81.4509 43.3363 14.58539563764753 ZIYUAN 1-02C (ZY 1-02C) 1 38038U 11079A 26118.54914510 .00000648 00000+0 22748-3 0 9990 2 38038 98.4098 186.8902 0007692 95.3787 11.8231 14.38173103752077 ARIRANG-3 (KOMPSAT-3) 1 38338U 12025B 26118.48816914 .00000489 00000+0 10642-3 0 9990 2 38338 98.1137 76.8188 0003997 272.4781 87.5963 14.62161223744082 EXACTVIEW-1 (ADS-1B) 1 38709U 12039C 26118.31719977 .00000129 00000+0 74995-4 0 9993 2 38709 98.9705 234.5975 0010080 319.4112 40.6314 14.24969255715606 SPOT 6 1 38755U 12047A 26118.46133788 .00000559 00000+0 13017-3 0 9993 2 38755 98.2146 186.3456 0001212 85.1180 275.0157 14.58524354725802 PLEIADES 1B 1 39019U 12068A 26118.48059128 .00000629 00000+0 14501-3 0 9994 2 39019 98.1957 194.2133 0001035 87.3836 272.7482 14.58565789713607 GOKTURK 2 1 39030U 12073A 26118.57643257 .00000390 00000+0 64308-4 0 9991 2 39030 97.6859 318.4878 0001948 101.2734 258.8695 14.75492487717199 LANDSAT 8 1 39084U 13008A 26118.44556456 .00000589 00000+0 14055-3 0 9992 2 39084 98.1850 189.3333 0001216 101.9618 258.1717 14.57133849690655 SARAL 1 39086U 13009A 26118.53074450 .00000127 00000+0 62496-4 0 9995 2 39086 98.5564 305.7253 0002968 79.2420 280.9098 14.32843554688499 GAOFEN-1 1 39150U 13018A 26118.52506683 .00000967 00000+0 14563-3 0 9997 2 39150 97.9114 191.5971 0018420 68.0201 292.2964 14.76520451700912 VNREDSAT 1 1 39160U 13021B 26118.49785301 .00000644 00000+0 12875-3 0 9990 2 39160 97.9126 173.8120 0001256 88.9471 271.1876 14.64954341693010 ARIRANG-5 (KOMPSAT-5) 1 39227U 13042A 26118.48443390 .00003614 00000+0 26238-3 0 9993 2 39227 97.6200 305.8809 0002501 329.3543 30.7536 15.04509640696389 SKYSAT-A 1 39418U 13066C 26118.45139976 .00002954 00000+0 17141-3 0 9999 2 39418 97.3862 169.4325 0023060 124.3167 236.0251 15.12681281680960 DUBAISAT-2 1 39419U 13066D 26118.50267662 .00005165 00000+0 32293-3 0 9992 2 39419 97.4558 109.9675 0010485 194.8734 165.2189 15.09816592678893 GPM-CORE 1 39574U 14009C 26118.49640912 .00007043 00000+0 15511-3 0 9994 2 39574 64.9705 114.6476 0012162 260.8648 99.1116 15.44689495690137 SENTINEL-1A 1 39634U 14016A 26118.51609045 .00000270 00000+0 66878-4 0 9992 2 39634 98.1799 126.7715 0001411 81.7952 278.3407 14.59201415642777 KAZEOSAT 1 1 39731U 14024A 26118.48071145 .00000336 00000+0 11530-3 0 9996 2 39731 98.3222 192.1600 0001459 97.8154 262.3201 14.42059942631391 ALOS-2 1 39766U 14029A 26118.63192608 .00001140 00000+0 15953-3 0 9991 2 39766 97.9211 216.5049 0001660 91.2737 268.8665 14.79474824644253 KAZEOSAT 2 1 40010U 14033A 26118.51710647 .00001080 00000+0 13116-3 0 9998 2 40010 97.5451 320.7451 0009892 117.9631 242.2588 14.85410869641587 HODOYOSHI-4 1 40011U 14033B 26118.47615017 .00002104 00000+0 23361-3 0 9990 2 40011 97.5461 305.7019 0025135 109.1841 251.2100 14.88007390641412 DEIMOS-2 1 40013U 14033D 26118.47541262 .00002278 00000+0 22113-3 0 9998 2 40013 97.5902 354.6972 0002352 98.8519 261.2968 14.93585607630304 HODOYOSHI-3 1 40015U 14033F 26118.40125573 .00001335 00000+0 16004-3 0 9991 2 40015 97.6373 283.4625 0033566 156.2715 204.0057 14.85275017640230 SPOT 7 1 40053U 14034A 26118.52625557 .00000663 00000+0 14469-3 0 9990 2 40053 98.0663 182.2909 0001528 78.0826 282.0546 14.60914309629881 SKYSAT-B 1 40072U 14037D 26118.42972525 .00001623 00000+0 18396-3 0 9993 2 40072 98.3802 74.5758 0006991 81.3650 278.8356 14.87892948638566 WORLDVIEW-3 (WV-3) 1 40115U 14048A 26118.50660919 .00000953 00000+0 11815-3 0 9997 2 40115 97.8577 194.0252 0002861 105.3471 254.8060 14.84937221634534 GAOFEN-2 1 40118U 14049A 26118.51325028 .00000565 00000+0 80181-4 0 9993 2 40118 98.0143 182.7617 0008342 42.2818 317.9036 14.80841751631889 YAOGAN-21 1 40143U 14053A 26118.52356882 .00011808 00000+0 46616-3 0 9995 2 40143 97.1525 160.9076 0006412 267.7035 92.3470 15.25654947647386 YAOGAN-22 1 40275U 14063A 26118.44828981 -.00000002 00000+0 11972-3 0 9999 2 40275 100.7647 268.9086 0005791 304.6076 55.4489 13.15529716553279 ASNARO 1 40298U 14070A 26118.77117969 .00008775 00000+0 41417-3 0 9996 2 40298 97.3465 196.2114 0002521 12.1981 347.9315 15.19676669636503 YAOGAN-24 1 40310U 14072A 26118.53288870 .00000861 00000+0 13213-3 0 9998 2 40310 98.1403 255.4724 0015191 65.0158 295.2627 14.76156669616395 CBERS 4 1 40336U 14079A 26118.54880867 .00000463 00000+0 17539-3 0 9991 2 40336 98.3393 176.9419 0001384 128.2669 231.8642 14.35546853596831 YAOGAN-26 1 40362U 14088A 26118.56428266 .00010349 00000+0 21844-3 0 9991 2 40362 97.0651 120.0094 0003152 192.0635 168.0540 15.45376562630038 SMAP 1 40376U 15003A 26118.50741495 .00000498 00000+0 10533-3 0 9997 2 40376 98.1293 126.3023 0001744 75.6791 284.4605 14.63394237600357 KOMPSAT-3A 1 40536U 15014A 26118.49357024 .00032100 00000+0 50394-3 0 9990 2 40536 97.6892 106.3147 0058864 0.6080 359.5233 15.51580277614101 SENTINEL-2A 1 40697U 15028A 26118.49440939 .00000199 00000+0 92446-4 0 9999 2 40697 98.5625 194.0547 0001281 86.2793 273.8536 14.30824245566622 GAOFEN-8 1 40701U 15030A 26118.54221326 .00020107 00000+0 43932-3 0 9997 2 40701 97.6931 308.9982 0009230 22.0706 338.0937 15.44179093603789 CARBONITE 1 (CBNT-1) 1 40718U 15032D 26118.53989551 .00002907 00000+0 35943-3 0 9998 2 40718 97.6496 298.6958 0016069 96.7876 263.5168 14.83432485581989 YAOGAN-27 1 40878U 15040A 26118.53899087 .00000178 00000+0 58157-3 0 9998 2 40878 100.1140 107.0811 0007963 334.4046 25.6672 13.16069328511131 GAOFEN-9 01 1 40894U 15047A 26118.53228734 .00000985 00000+0 12751-3 0 9994 2 40894 97.6322 156.4741 0026038 304.9046 54.9722 14.82792348572831 YAOGAN-28 1 41026U 15064A 26118.52278696 .00008586 00000+0 32827-3 0 9993 2 41026 97.2995 257.8419 0010882 15.1121 345.0441 15.26781633583102 YAOGAN-29 1 41038U 15069A 26118.52057726 .00001071 00000+0 13828-3 0 9992 2 41038 98.0075 147.0678 0001915 133.9779 226.1592 14.83046390563262 KENT RIDGE 1 1 41167U 15077B 26117.79959287 .00004584 00000+0 15840-3 0 9993 2 41167 14.9801 280.6246 0008334 248.3571 111.5863 15.22820651573406 GAOFEN-4 1 41194U 15083A 26118.51611312 -.00000340 00000+0 00000+0 0 9990 2 41194 0.3811 82.7211 0003354 135.0210 290.2392 1.00273173 38037 JASON-3 1 41240U 16002A 26118.52691131 -.00000030 00000+0 12791-3 0 9992 2 41240 66.0415 230.2392 0008042 274.6123 85.3977 12.87626303480857 SENTINEL-3A 1 41335U 16011A 26118.49446242 .00000115 00000+0 65640-4 0 9999 2 41335 98.6270 186.5853 0000992 101.1016 259.0276 14.26739634530976 ZIYUAN 3-02 (ZY 3-02) 1 41556U 16033A 26118.53148453 .00006303 00000+0 28408-3 0 9991 2 41556 97.3849 195.2531 0014203 107.4247 252.8543 15.21297646550433 CARTOSAT-2C 1 41599U 16040A 26118.46506973 .00003886 00000+0 18747-3 0 9991 2 41599 97.4526 179.1152 0008263 311.2752 48.7771 15.19260375546164 SKYSAT-C1 1 41601U 16040C 26118.37455624 .00009354 00000+0 27365-3 0 9993 2 41601 96.9615 152.8138 0002717 159.6004 200.5350 15.35451377550220 LAPAN-A3 1 41603U 16040E 26118.51569457 .00003647 00000+0 11744-3 0 9994 2 41603 97.1486 116.3081 0010080 182.7118 177.4072 15.32775869547207 GAOFEN-3 1 41727U 16049A 26118.54805697 .00000239 00000+0 85790-4 0 9999 2 41727 98.4033 127.0811 0001126 63.7312 296.3993 14.42227283511498 SKYSAT-C4 1 41771U 16058B 26118.29212407 .00016181 00000+0 32155-3 0 9990 2 41771 96.9217 142.2005 0003483 93.1011 267.0639 15.47031085537757 SKYSAT-C5 1 41772U 16058C 26118.07436750 .00009100 00000+0 28105-3 0 9999 2 41772 97.0524 160.9646 0004977 106.8220 253.3570 15.33739038536065 SKYSAT-C2 1 41773U 16058D 26118.33961856 .00011931 00000+0 29176-3 0 9993 2 41773 97.0211 142.3437 0002349 189.4006 170.7198 15.40937250537378 SKYSAT-C3 1 41774U 16058E 26118.35083234 .00019727 00000+0 34738-3 0 9992 2 41774 96.9090 151.1700 0002728 103.6285 256.5271 15.50468738538389 ALSAT-1B 1 41785U 16059C 26118.49037764 .00000603 00000+0 10303-3 0 9992 2 41785 97.7776 129.3977 0010190 33.5439 326.6412 14.72236519513267 PATHFINDER 1 1 41787U 16059E 26118.43472678 .00000801 00000+0 14837-3 0 9991 2 41787 97.8177 119.9576 0028666 8.0339 352.1320 14.67600787512412 SCATSAT 1 1 41790U 16059H 26118.16529176 .00001436 00000+0 19502-3 0 9990 2 41790 98.1221 181.4119 0055706 50.4110 310.2001 14.79415544 94199 GOKTURK 1A 1 41875U 16073A 26118.51618596 .00000268 00000+0 61589-4 0 9999 2 41875 98.1306 13.9548 0001414 82.6472 277.4890 14.62794603501569 RESOURCESAT-2A 1 41877U 16074A 26118.66225701 .00000129 00000+0 79096-4 0 9998 2 41877 98.7545 192.5683 0001782 188.4619 171.6529 14.21601454487262 CARTOSAT-2D 1 41948U 17008A 26118.49789376 .00007256 00000+0 34679-3 0 9994 2 41948 97.4153 178.7200 0005568 66.2738 293.9080 15.19295667510039 SENTINEL-2B 1 42063U 17013A 26118.48718958 .00000243 00000+0 10919-3 0 9996 2 42063 98.5652 193.9650 0001225 90.2566 269.8757 14.30815271477535 CARTOSAT-2E 1 42767U 17036C 26118.64668375 .00004588 00000+0 22125-3 0 9995 2 42767 97.4315 179.2545 0004300 111.4377 248.7316 15.19193443490623 FORMOSAT-5 1 42920U 17049A 26118.46786701 .00000190 00000+0 59258-4 0 9997 2 42920 98.2259 194.8800 0010447 231.4711 128.5549 14.50878670459467 SENTINEL-5P 1 42969U 17064A 26118.43860932 .00000060 00000+0 49734-4 0 9997 2 42969 98.7943 60.9279 0001244 80.6289 279.5027 14.19510319442500 SKYSAT-C11 1 42987U 17068A 26118.36420947 .00028184 00000+0 41612-3 0 9994 2 42987 97.4287 265.1459 0001525 136.9927 223.1446 15.55323436475499 SKYSAT-C10 1 42988U 17068B 26118.33146359 .00010173 00000+0 31403-3 0 9990 2 42988 97.4424 254.7487 0001665 109.0385 251.1038 15.33754826474711 SKYSAT-C9 1 42989U 17068C 26118.36641616 .00013169 00000+0 32815-3 0 9996 2 42989 97.4348 255.2565 0007486 321.9923 38.0794 15.40331028475085 SKYSAT-C8 1 42990U 17068D 26118.37656344 .00011635 00000+0 33441-3 0 9995 2 42990 97.4444 254.4087 0001232 112.1748 247.9627 15.35974056474669 SKYSAT-C7 1 42991U 17068E 26118.36829369 .00011042 00000+0 31803-3 0 9996 2 42991 97.4454 255.3866 0004663 286.8365 73.2367 15.35914116474720 SKYSAT-C6 1 42992U 17068F 26118.37341199 .00009937 00000+0 30856-3 0 9995 2 42992 97.4490 255.5262 0001641 354.8147 5.3078 15.33572480474682 CARTOSAT-2F 1 43111U 18004A 26118.48088873 .00003930 00000+0 18944-3 0 9990 2 43111 97.4080 178.7148 0002478 92.4541 267.6977 15.19296234459781 GAOFEN-1 02 1 43259U 18031A 26118.48708264 .00001448 00000+0 21550-3 0 9995 2 43259 98.0562 181.1439 0003565 145.0846 215.0598 14.76449998435361 GAOFEN-1 03 1 43260U 18031B 26118.53300991 .00000780 00000+0 11952-3 0 9991 2 43260 98.0549 181.0530 0001679 199.7819 160.3326 14.76434742435361 GAOFEN-1 04 1 43262U 18031D 26118.50860476 .00000686 00000+0 10601-3 0 9994 2 43262 98.0563 181.2139 0000712 102.7329 257.3960 14.76469076435351 SENTINEL-3B 1 43437U 18039A 26118.46762841 .00000126 00000+0 70295-4 0 9993 2 43437 98.6269 186.7068 0001647 91.0621 269.0748 14.26734366417039 GAOFEN-5 01 1 43461U 18043A 26118.39487642 .00000411 00000+0 94755-4 0 9994 2 43461 98.4538 88.9474 0000984 188.4618 171.6565 14.60569744424427 GAOFEN-6 1 43484U 18048A 26118.53524179 .00000976 00000+0 14679-3 0 9999 2 43484 97.7793 183.0310 0011623 343.1454 16.9368 14.76572170426061 GAOFEN-11 01 1 43585U 18063A 26118.54397627 .00019487 00000+0 30420-3 0 9994 2 43585 97.1328 185.6096 0005033 138.9895 221.1738 15.53843692432634 ICESAT-2 1 43613U 18070A 26118.52184438 .00004262 00000+0 15481-3 0 9991 2 43613 92.0017 277.5814 0001891 67.4872 292.6578 15.28262424424875 HYSIS 1 43719U 18096A 26118.47380059 .00001514 00000+0 21356-3 0 9992 2 43719 97.9866 185.6044 0000782 83.3294 276.8006 14.78673593400078 KAZSTSAT 1 43783U 18099AB 26118.32664425 .00000829 00000+0 71550-4 0 9992 2 43783 97.4362 152.5112 0004152 190.1750 169.9391 14.99779123403838 SAUDISAT 5A 1 43831U 18102A 26118.51835367 .00005835 00000+0 21917-3 0 9990 2 43831 97.3107 181.0660 0008319 316.9857 43.0731 15.27534685408095 SAUDISAT 5B 1 43833U 18102C 26118.54599612 .00005770 00000+0 21486-3 0 9994 2 43833 97.3209 184.0729 0009099 319.0300 41.0255 15.27819454408215 GAOFEN-10R 1 44622U 19066A 26118.49454295 .00001365 00000+0 17497-3 0 9995 2 44622 98.0466 71.7261 0004450 310.2226 49.8598 14.82947065355019 CARTOSAT-3 1 44804U 19081A 26118.49606135 .00003120 00000+0 15084-3 0 9997 2 44804 97.4347 181.1515 0010999 330.7494 29.3123 15.19303775355921 GAOFEN-12 01 1 44819U 19082A 26118.53706101 .00000453 00000+0 65918-4 0 9991 2 44819 97.8118 126.2263 0001545 126.7582 233.3772 14.80417010346747 CSG-1 1 44873U 19092A 26118.49862808 .00000533 00000+0 73451-4 0 9994 2 44873 97.8887 302.8199 0001292 93.7790 266.3570 14.82156710344113 NEMO-HD 1 46277U 20061F 26118.48814124 .00010110 00000+0 22683-3 0 9991 2 46277 97.1961 180.9709 0001563 133.4150 226.7229 15.43582368314314 SENTINEL-6A 1 46984U 20086A 26118.42920220 -.00000072 00000+0 -48160-4 0 9999 2 46984 66.0413 238.3985 0007785 270.3268 89.6855 12.80930918253952 GAOFEN-12 02 1 48079U 21026A 26118.54286010 .00000465 00000+0 68024-4 0 9991 2 48079 97.9926 116.9294 0005848 47.7367 312.4340 14.80255424274413 PLEIADES NEO 3 1 48268U 21034A 26118.48172245 .00000615 00000+0 84741-4 0 9998 2 48268 97.8930 193.9619 0001328 94.4169 265.7195 14.81671159270299 PLEIADES NEO 4 1 49070U 21073E 26118.51547519 .00000433 00000+0 61620-4 0 9996 2 49070 97.8933 193.9914 0001381 94.5774 265.5597 14.81675771254014 LANDSAT 9 1 49260U 21088A 26118.48002979 .00000373 00000+0 92872-4 0 9991 2 49260 98.1870 189.4412 0001285 105.2589 254.8752 14.57122332243766 CSG-2 1 51444U 22008A 26118.53237201 .00000486 00000+0 67624-4 0 9997 2 51444 97.8886 302.8497 0001371 85.4830 274.6540 14.82152836229235 GAOFEN-12 03 1 52912U 22069A 26118.49554686 .00000454 00000+0 66752-4 0 9995 2 52912 97.8343 7.6053 0001174 44.4409 315.6897 14.79950632207266 SWOT 1 54754U 22173A 26118.54193419 .00000067 00000+0 47079-4 0 9997 2 54754 77.6079 102.3263 0000780 147.3547 212.7653 14.00170817172203 GAOFEN-12 04 1 57654U 23123A 26118.51850642 .00001114 00000+0 15366-3 0 9997 2 57654 97.9134 37.2512 0001301 90.9889 269.1472 14.80129811145286 PARS 1 1 59065U 24039Q 26118.51501663 .00012511 00000+0 26974-3 0 9998 2 59065 97.4799 97.9191 0007591 301.0848 58.9655 15.44695741120977 RESURS-P 4 1 59371U 24061A 26118.55676082 .00003562 00000+0 11837-3 0 9993 2 59371 97.2719 67.3422 0002476 58.3824 301.7659 15.31837060116165 LEGION 1 1 59625U 24081A 26118.48235816 .00004505 00000+0 23261-3 0 9997 2 59625 97.5026 196.8648 0009995 183.5775 176.5389 15.16776884110002 LEGION 2 1 59626U 24081B 26118.44963080 .00004486 00000+0 23005-3 0 9999 2 59626 97.5026 196.9225 0011498 157.6404 202.5332 15.17006769110004 ALOS-4 (DAICHI-4) 1 60182U 24123A 26117.83964986 .00001386 00000+0 19241-3 0 9996 2 60182 97.9208 215.7270 0001617 99.1644 260.9750 14.79472632 98434 LEGION 3 1 60452U 24146A 26118.50740358 .00004874 00000+0 26516-3 0 9999 2 60452 45.0017 296.9193 0008969 240.7096 119.2886 15.15666777 94486 LEGION 4 1 60453U 24146B 26118.24390385 .00004369 00000+0 24448-3 0 9993 2 60453 45.0030 30.2027 0010291 34.4496 325.7047 15.14865156 93292 SENTINEL-2C 1 60989U 24157A 26118.10262937 .00000116 00000+0 60893-4 0 9996 2 60989 98.5630 193.5970 0001499 101.3859 258.7492 14.30816947 85822 IONOSFERA-M 1 1 61735U 24199A 26118.47319427 .00000063 00000+0 47803-4 0 9996 2 61735 98.7242 352.1536 0000366 19.8395 340.2797 14.22744772120635 IONOSFERA-M 2 1 61736U 24199B 26118.50760367 .00000072 00000+0 51898-4 0 9993 2 61736 98.7241 352.0988 0001953 94.8897 265.2504 14.22747635123768 BIOMASS 1 63772U 25090A 26118.46495425 .00000898 00000+0 16687-3 0 9993 2 63772 98.0751 306.4997 0001360 88.7746 271.3614 14.67534378 53397 GOSAT-GW (IBUKI GW) 1 64694U 25141A 26118.55406009 -.00000549 00000+0 -88307-4 0 9998 2 64694 98.0555 56.6837 0001368 83.0135 277.1225 14.67555374 44568 IONOSFERA-M 3 1 64876U 25155A 26118.48082889 .00000054 00000+0 44363-4 0 9996 2 64876 98.5993 81.6478 0001883 41.6591 318.4730 14.21477532 39347 IONOSFERA-M 4 1 64877U 25155B 26118.51574248 .00000056 00000+0 45253-4 0 9997 2 64877 98.5992 81.5997 0001341 53.7636 306.3665 14.21479548 39347 MICROCARB 1 64899U 25156A 26118.46957623 .00000646 00000+0 10988-3 0 9999 2 64899 97.9836 196.4941 0017694 73.1407 287.1740 14.72272169 40658 CO3D 3 1 64900U 25156B 26118.49142481 .00004107 00000+0 19274-3 0 9996 2 64900 97.4329 197.8984 0001054 49.6173 310.5154 15.20200954 41980 CO3D 4 1 64901U 25156C 26118.49158032 .00002003 00000+0 95596-4 0 9991 2 64901 97.4326 197.8981 0002017 101.4971 258.6491 15.20211498 41989 CO3D 2 1 64902U 25156D 26118.52405552 .00004351 00000+0 20405-3 0 9992 2 64902 97.4327 197.8293 0000593 63.0418 297.0877 15.20191824 41988 CO3D 1 1 64903U 25156E 26103.64843334 .00003151 00000+0 12932-3 0 9997 2 64903 98.0928 182.3847 0110033 5.8142 354.4339 15.19681462 39726 SENTINEL-6B 1 66514U 25264A 26118.42954632 -.00000073 00000+0 -50433-4 0 9994 2 66514 66.0413 238.5240 0007947 269.6575 90.3530 12.80930817 20792 CSG-3 1 67304U 26001A 26118.44374759 .00000365 00000+0 52441-4 0 9993 2 67304 97.8882 302.7654 0001440 85.0312 275.1065 14.82147431 17097